Time,TemperatureF,DewpointF,PressureIn,WindDirection,WindDirectionDegrees,WindSpeedMPH,WindSpeedGustMPH,Humidity,HourlyPrecipIn,Conditions,Clouds,dailyrainin,SolarRadiationWatts/m^2,SoftwareType,DateUTC
2015-07-05 00:00:00,59.0,57.0,-100.00,South,180,3.0,-999.0,93,-99.99,,,-99.99,0.000000,,2015-07-05 05:00:00,
2015-07-05 00:33:00,59.0,57.0,-100.00,South,180,3.0,-999.0,93,-99.99,,,-99.99,0.000000,,2015-07-05 05:33:00,
2015-07-05 00:44:00,59.0,57.0,-100.00,South,180,3.0,-999.0,93,-99.99,,,-99.99,0.000000,,2015-07-05 05:44:00,
2015-07-05 00:54:00,59.0,57.0,-100.00,South,180,3.0,-999.0,93,-99.99,,,-99.99,0.000000,,2015-07-05 05:54:00,
2015-07-05 01:00:00,59.0,57.0,-100.00,SSE,157,2.0,-999.0,93,-99.99,,,-99.99,0.000000,,2015-07-05 06:00:00,
2015-07-05 01:34:00,59.0,57.0,-100.00,SSE,157,2.0,-999.0,93,-99.99,,,-99.99,0.000000,,2015-07-05 06:34:00,
2015-07-05 01:44:00,59.0,57.0,-100.00,SSE,157,2.0,-999.0,93,-99.99,,,-99.99,0.000000,,2015-07-05 06:44:00,
2015-07-05 01:53:00,59.0,57.0,-100.00,SSE,157,2.0,-999.0,93,-99.99,,,-99.99,0.000000,,2015-07-05 06:53:00,
2015-07-05 02:00:00,58.0,56.0,-100.00,SSE,157,3.0,-999.0,93,-99.99,,,-99.99,0.000000,,2015-07-05 07:00:00,
2015-07-05 02:34:00,58.0,56.0,-100.00,SSE,157,3.0,-999.0,93,-99.99,,,-99.99,0.000000,,2015-07-05 07:34:00,
2015-07-05 02:44:00,58.0,56.0,-100.00,SSE,157,3.0,-999.0,93,-99.99,,,-99.99,0.000000,,2015-07-05 07:44:00,
2015-07-05 02:53:00,58.0,56.0,-100.00,SSE,157,3.0,-999.0,93,-99.99,,,-99.99,0.000000,,2015-07-05 07:53:00,
2015-07-05 03:00:00,58.0,56.0,-100.00,South,180,4.0,-999.0,92,-99.99,,,-99.99,0.000000,,2015-07-05 08:00:00,
2015-07-05 03:33:00,58.0,56.0,-100.00,South,180,4.0,-999.0,92,-99.99,,,-99.99,0.000000,,2015-07-05 08:33:00,
2015-07-05 03:44:00,58.0,56.0,-100.00,South,180,4.0,-999.0,92,-99.99,,,-99.99,0.000000,,2015-07-05 08:44:00,
2015-07-05 03:53:00,58.0,56.0,-100.00,South,180,4.0,-999.0,92,-99.99,,,-99.99,0.000000,,2015-07-05 08:53:00,
2015-07-05 04:00:00,58.0,56.0,-100.00,SSE,157,3.0,-999.0,93,-99.99,,,-99.99,0.000000,,2015-07-05 09:00:00,
2015-07-05 04:34:00,58.0,56.0,-100.00,SSE,157,3.0,-999.0,93,-99.99,,,-99.99,0.000000,,2015-07-05 09:34:00,
2015-07-05 04:44:00,58.0,56.0,-100.00,SSE,157,3.0,-999.0,93,-99.99,,,-99.99,0.000000,,2015-07-05 09:44:00,
2015-07-05 04:54:00,58.0,56.0,-100.00,SSE,157,3.0,-999.0,93,-99.99,,,-99.99,0.000000,,2015-07-05 09:54:00,
2015-07-05 05:00:00,57.0,56.0,-100.00,SSE,157,3.0,-999.0,95,-99.99,,,-99.99,0.000000,,2015-07-05 10:00:00,
2015-07-05 05:33:00,57.0,56.0,-100.00,SSE,157,3.0,-999.0,95,-99.99,,,-99.99,0.000000,,2015-07-05 10:33:00,
2015-07-05 05:44:00,57.0,56.0,-100.00,SSE,157,3.0,-999.0,95,-99.99,,,-99.99,0.000000,,2015-07-05 10:44:00,
2015-07-05 05:54:00,57.0,56.0,-100.00,SSE,157,3.0,-999.0,95,-99.99,,,-99.99,0.000000,,2015-07-05 10:54:00,
2015-07-05 06:00:00,57.0,56.0,-100.00,SSE,157,2.0,-999.0,95,-99.99,,,-99.99,15.080000,,2015-07-05 11:00:00,
2015-07-05 06:34:00,57.0,56.0,-100.00,SSE,157,2.0,-999.0,95,-99.99,,,-99.99,15.080000,,2015-07-05 11:34:00,
2015-07-05 06:44:00,57.0,56.0,-100.00,SSE,157,2.0,-999.0,95,-99.99,,,-99.99,15.080000,,2015-07-05 11:44:00,
2015-07-05 06:54:00,57.0,56.0,-100.00,SSE,157,2.0,-999.0,95,-99.99,,,-99.99,15.080000,,2015-07-05 11:54:00,
2015-07-05 07:00:00,60.0,59.0,-100.00,South,180,2.0,-999.0,94,-99.99,,,-99.99,91.639999,,2015-07-05 12:00:00,
2015-07-05 07:34:00,60.0,59.0,-100.00,South,180,2.0,-999.0,94,-99.99,,,-99.99,91.639999,,2015-07-05 12:34:00,
2015-07-05 07:44:00,60.0,59.0,-100.00,South,180,2.0,-999.0,94,-99.99,,,-99.99,91.639999,,2015-07-05 12:44:00,
2015-07-05 07:54:00,60.0,59.0,-100.00,South,180,2.0,-999.0,94,-99.99,,,-99.99,91.639999,,2015-07-05 12:54:00,
2015-07-05 08:00:00,68.0,63.0,-100.00,South,180,1.0,-999.0,86,-99.99,,,-99.99,203.000000,,2015-07-05 13:00:00,
2015-07-05 08:33:00,68.0,63.0,-100.00,South,180,1.0,-999.0,86,-99.99,,,-99.99,203.000000,,2015-07-05 13:33:00,
2015-07-05 08:44:00,68.0,63.0,-100.00,South,180,1.0,-999.0,86,-99.99,,,-99.99,203.000000,,2015-07-05 13:44:00,
2015-07-05 08:53:00,68.0,63.0,-100.00,South,180,1.0,-999.0,86,-99.99,,,-99.99,203.000000,,2015-07-05 13:53:00,
2015-07-05 09:00:00,71.0,62.0,-100.00,SSW,202,2.0,-999.0,73,-99.99,,,-99.99,345.679993,,2015-07-05 14:00:00,
2015-07-05 09:34:00,71.0,62.0,-100.00,SSW,202,2.0,-999.0,73,-99.99,,,-99.99,345.679993,,2015-07-05 14:34:00,
2015-07-05 09:44:00,71.0,62.0,-100.00,SSW,202,2.0,-999.0,73,-99.99,,,-99.99,345.679993,,2015-07-05 14:44:00,
2015-07-05 09:54:00,71.0,62.0,-100.00,SSW,202,2.0,-999.0,73,-99.99,,,-99.99,345.679993,,2015-07-05 14:54:00,
2015-07-05 10:00:00,74.0,63.0,-100.00,South,180,3.0,-999.0,66,-99.99,,,-99.99,515.039978,,2015-07-05 15:00:00,
2015-07-05 11:00:00,77.0,63.0,-100.00,SSW,202,3.0,-999.0,60,-99.99,,,-99.99,658.880005,,2015-07-05 16:00:00,
2015-07-05 11:34:00,77.0,63.0,-100.00,SSW,202,3.0,-999.0,60,-99.99,,,-99.99,658.880005,,2015-07-05 16:34:00,
2015-07-05 11:44:00,77.0,63.0,-100.00,SSW,202,3.0,-999.0,60,-99.99,,,-99.99,658.880005,,2015-07-05 16:44:00,
2015-07-05 11:54:00,77.0,63.0,-100.00,SSW,202,3.0,-999.0,60,-99.99,,,-99.99,658.880005,,2015-07-05 16:54:00,
2015-07-05 12:00:00,78.0,64.0,-100.00,South,180,4.0,-999.0,62,-99.99,,,-99.99,705.280029,,2015-07-05 17:00:00,
2015-07-05 12:34:00,78.0,64.0,-100.00,South,180,4.0,-999.0,62,-99.99,,,-99.99,705.280029,,2015-07-05 17:34:00,
2015-07-05 12:44:00,78.0,64.0,-100.00,South,180,4.0,-999.0,62,-99.99,,,-99.99,705.280029,,2015-07-05 17:44:00,
2015-07-05 12:54:00,78.0,64.0,-100.00,South,180,4.0,-999.0,62,-99.99,,,-99.99,705.280029,,2015-07-05 17:54:00,
2015-07-05 13:00:00,77.0,64.0,-100.00,South,180,6.0,-999.0,64,-99.99,,,-99.99,718.039978,,2015-07-05 18:00:00,
2015-07-05 13:34:00,77.0,64.0,-100.00,South,180,6.0,-999.0,64,-99.99,,,-99.99,718.039978,,2015-07-05 18:34:00,
2015-07-05 13:44:00,77.0,64.0,-100.00,South,180,6.0,-999.0,64,-99.99,,,-99.99,718.039978,,2015-07-05 18:44:00,
2015-07-05 13:54:00,77.0,64.0,-100.00,South,180,6.0,-999.0,64,-99.99,,,-99.99,718.039978,,2015-07-05 18:54:00,
2015-07-05 14:00:00,78.0,64.0,-100.00,South,180,6.0,-999.0,62,-99.99,,,-99.99,769.080017,,2015-07-05 19:00:00,
2015-07-05 14:34:00,78.0,64.0,-100.00,South,180,6.0,-999.0,62,-99.99,,,-99.99,769.080017,,2015-07-05 19:34:00,
2015-07-05 14:44:00,78.0,64.0,-100.00,South,180,6.0,-999.0,62,-99.99,,,-99.99,769.080017,,2015-07-05 19:44:00,
2015-07-05 14:54:00,78.0,64.0,-100.00,South,180,6.0,-999.0,62,-99.99,,,-99.99,769.080017,,2015-07-05 19:54:00,
2015-07-05 15:00:00,77.0,63.0,-100.00,South,180,6.0,-999.0,62,-99.99,,,-99.99,708.760010,,2015-07-05 20:00:00,
2015-07-05 15:33:00,77.0,63.0,-100.00,South,180,6.0,-999.0,62,-99.99,,,-99.99,708.760010,,2015-07-05 20:33:00,
2015-07-05 15:44:00,77.0,63.0,-100.00,South,180,6.0,-999.0,62,-99.99,,,-99.99,708.760010,,2015-07-05 20:44:00,
2015-07-05 15:53:00,77.0,63.0,-100.00,South,180,6.0,-999.0,62,-99.99,,,-99.99,708.760010,,2015-07-05 20:53:00,
2015-07-05 16:00:00,76.0,61.0,-100.00,South,180,9.0,-999.0,59,-99.99,,,-99.99,687.880005,,2015-07-05 21:00:00,
2015-07-05 16:34:00,76.0,61.0,-100.00,South,180,9.0,-999.0,59,-99.99,,,-99.99,687.880005,,2015-07-05 21:34:00,
2015-07-05 16:44:00,76.0,61.0,-100.00,South,180,9.0,-999.0,59,-99.99,,,-99.99,687.880005,,2015-07-05 21:44:00,
2015-07-05 16:55:00,76.0,61.0,-100.00,South,180,9.0,-999.0,59,-99.99,,,-99.99,687.880005,,2015-07-05 21:55:00,
2015-07-05 17:00:00,75.0,59.0,-100.00,South,180,9.0,-999.0,57,-99.99,,,-99.99,541.719971,,2015-07-05 22:00:00,
2015-07-05 17:34:00,75.0,59.0,-100.00,South,180,9.0,-999.0,57,-99.99,,,-99.99,541.719971,,2015-07-05 22:34:00,
2015-07-05 17:44:00,75.0,59.0,-100.00,South,180,9.0,-999.0,57,-99.99,,,-99.99,541.719971,,2015-07-05 22:44:00,
2015-07-05 17:54:00,75.0,59.0,-100.00,South,180,9.0,-999.0,57,-99.99,,,-99.99,541.719971,,2015-07-05 22:54:00,
2015-07-05 18:00:00,74.0,59.0,-100.00,South,180,7.0,-999.0,59,-99.99,,,-99.99,385.119995,,2015-07-05 23:00:00,
2015-07-05 18:34:00,74.0,59.0,-100.00,South,180,7.0,-999.0,59,-99.99,,,-99.99,385.119995,,2015-07-05 23:34:00,
2015-07-05 18:44:00,74.0,59.0,-100.00,South,180,7.0,-999.0,59,-99.99,,,-99.99,385.119995,,2015-07-05 23:44:00,
2015-07-05 18:53:00,74.0,59.0,-100.00,South,180,7.0,-999.0,59,-99.99,,,-99.99,385.119995,,2015-07-05 23:53:00,
2015-07-05 19:00:00,72.0,58.0,-100.00,South,180,8.0,-999.0,62,-99.99,,,-99.99,221.559998,,2015-07-06 00:00:00,
2015-07-05 19:34:00,72.0,58.0,-100.00,South,180,8.0,-999.0,62,-99.99,,,-99.99,221.559998,,2015-07-06 00:34:00,
2015-07-05 19:44:00,72.0,58.0,-100.00,South,180,8.0,-999.0,62,-99.99,,,-99.99,221.559998,,2015-07-06 00:44:00,
2015-07-05 19:53:00,72.0,58.0,-100.00,South,180,8.0,-999.0,62,-99.99,,,-99.99,221.559998,,2015-07-06 00:53:00,
2015-07-05 20:00:00,70.0,58.0,-100.00,South,180,8.0,-999.0,64,-99.99,,,-99.99,88.160004,,2015-07-06 01:00:00,
2015-07-05 20:33:00,70.0,58.0,-100.00,South,180,8.0,-999.0,64,-99.99,,,-99.99,88.160004,,2015-07-06 01:33:00,
2015-07-05 20:44:00,70.0,58.0,-100.00,South,180,8.0,-999.0,64,-99.99,,,-99.99,88.160004,,2015-07-06 01:44:00,
2015-07-05 20:53:00,70.0,58.0,-100.00,South,180,8.0,-999.0,64,-99.99,,,-99.99,88.160004,,2015-07-06 01:53:00,